Location: Newark
(34.6283°N, 36.0776°E)
Time: 04:28:43
(UTC+00:00)

A-11 Canister half - Pass Details

Date: 17 September 2019
Orbit: 1527 x 1682 km, 47.3° (Epoch: 22 October)

Event Time Altitude Azimuth Distance (km) Brightness Sun altitude
Rises 09:42:26 0° 303° (WNW) 4,852 11.5 57.5°
Reaches altitude 10° 09:45:37 10° 299° (WNW) 3,883 11.1 57.5°
Maximum altitude 09:55:11 53° 226° (SW) 1,974 11.3 57.1°
Drops below altitude 10° 10:04:53 10° 153° (SSE) 3,933 11.7 56.7°
Sets 10:08:09 0° 148° (SSE) 4,919 12.0 56.5°
